www.pogodaiklimat.ru

Погода и климат >> Архив погоды >> Никарагуа >> Хуигальпа


ПОГОДА в Хуигальпе

  • Прогноз погоды в Хуигальпе
  • Монитор погоды в Хуигальпе

АРХИВ ПОГОДЫ в Хуигальпе

Время (UTC), дата Ветер
(напр.,м/с)
 
Видим.   Явления Облачность Т
(С)
Тd
(С)
f
(%)
Тe
(С)
Тes
(С)
Комфортность P
(гПа)
Po
(гПа)
Тmin
(С)
Tmax
(С)
R
(мм)
R24
(мм)
S
(см)
18 12.01 В 3 15 км 6/4 600 м
[Cu med, cong Ac lent]
+29.4 +21.5 63 +37 +43 очень
душно
1015.1 1000.3 +22.6 +30.4
21 12.01 В 3 15 км 5/4 600 м
[Cu med, cong Ac lent]
+30.6 +22.3 61 +40 +42 очень
душно
1013.7 998.0
15 13.01 СВ 4 15 км 6/4 600 м
[Cu med, cong Ac lent]
+26.8 +21.7 74 +34 +37 очень
душно
1015.9 1001.1
18 13.01 В 4 15 км 8/5 600 м
[Cu med, cong Ac lent]
+30.0 +22.5 64 +39 +42 очень
душно
1015.0 1000.2 +22.4 +30.4
21 13.01 В 5 15 км 6/4 600 м
[Cu med, cong Ac lent]
+29.4 +22.5 66 +38 +40 очень
душно
1012.7 998.0
12 14.01 В 2 15 км 9/5 600 м
[Cu med, cong Ac und]
+23.8 +21.2 85 +30 +30 очень
душно
1014.3 999.6 +23.7 +32.2
15 14.01 В 3 15 км 8/4 600 м
[Cu med, cong Ac lent Ci sp]
+25.0 +22.8 88 +33 +36 очень
душно
1015.9 1001.1
18 14.01 В 5 15 км 8/4 600 м
[Cu med, cong Ac lent Ci sp]
+30.0 +21.6 61 +38 +42 очень
душно
1014.3 999.6 +23.7 +31.4
21 14.01 В 6 15 км 8/3 600 м
[Cu med, cong Ac lent Ci]
+31.4 +21.0 54 +39 +40 очень
душно
1012.6 997.9
12 15.01 штиль 0 15 км 9/4 600 м
[Cu med, cong Ac und Ci]
+25.6 +22.6 84 +34 +34 очень
душно
1014.1 999.4 +23.8 +32.0
15 15.01 В 3 15 км 8/4 600 м
[Cu med, cong Ac lent Ci sp]
+27.4 +23.3 78 +37 +40 очень
душно
1015.5 1000.7
18 15.01 В 5 15 км 9/4 600 м
[Cu med, cong Ac lent Ci]
+30.2 +23.4 67 +41 +44 опасность
перегрева
1014.8 1000.0 +23.8 +30.4
21 15.01 В 4 15 км 9/5 600 м
[Cu med, cong Ac und]
+28.2 +21.8 68 +36 +37 очень
душно
1012.7 998.0
00 16.01 В 4 15 км 9/5 600 м
[Cu med, cong Ac und]
+28.2 +21.8 68 +36 +36 очень
душно
1012.7 998.0
12 16.01 В 3 15 км 8/4 600 м
[Sc Ac und]
+23.8 +21.2 85 +30 +30 очень
душно
1014.2 999.5 +23.6 +31.2
15 16.01 В 5 15 км 8/4 600 м
[Cu med, cong Ac lent Ci sp]
+25.6 +21.4 78 +33 +34 очень
душно
1016.8 1002.0
18 16.01 В 4 15 км 8/4 750 м
[Cu med, cong Ac lent Ci sp]
+29.0 +21.5 64 +37 +41 очень
душно
1015.1 1000.3 +23.6 +30.0
12 17.01 В 2 15 км 9/4 600 м
[Cu med, cong Ac und Ci sp]
+23.8 +22.9 95 1014.6 99.9 +23.8 +31.0
15 17.01 В 4 15 км 9/5 600 м
[Cu med, cong Ac und]
+27.0 +22.1 75 +35 +36 очень
душно
1016.4 1001.6
18 17.01 В 2 15 км 9/4 600 м
[Cu med, cong Ac und Ci sp]
+30.6 +21.2 57 +38 +44 очень
душно
1015.1 1000.3 +20.8 +30.8
21 17.01 В 2 15 км 4/3 600 м
[Cu med, cong Ac lent]
+30.4 +20.6 56 +37 +41 очень
душно
1013.1 998.4
12 18.01 В 2 15 км 6/3 600 м
[Sc Ac und]
+23.6 +21.6 89 +30 +30 очень
душно
1013.8 999.1 +23.2 +31.2
15 18.01 СВ 2 15 км 9/6 600 м
[Cu med, cong Ac und]
+26.0 +22.4 81 +34 +36 очень
душно
1015.3 1000.5
18 18.01 В 5 15 км 6/5 600 м
[Cu med, cong Ac lent]
+30.2 +22.1 62 +39 +43 очень
душно
1014.3 999.6 +23.2 +31.2
21 18.01 В 4 15 км 6/5 600 м
[Cu med, cong Ac lent]
+29.4 +22.2 65 +38 +40 очень
душно
1011.8 997.1
12 19.01 В 2 15 км 4/3 600 м
[Cu med, cong Ac lent]
+22.8 +21.4 92 +30 +30 очень
душно
1013.1 998.4 +22.6 +32.0

 

Местоположение метеостанции Хуигальпа (Никарагуа): широта 12.10 долгота -85.37 высота над уровнем моря 90 м.

В архиве по умолчанию представлена погода в Хуигальпе за последнюю неделю. Архивные данные за месяц целиком и за предыдущие месяцы, начиная с января 2011 года, Вы можете получить, выбрав интересующий диапазон дат из раскрывающегося списка и нажав кнопку "Ввод!".


*Определитесь, кто Вы:
робот инопланетянин человек

Внимание! Время в таблицах - всемирное. Для получения местного времени необходимо прибавить поправку, которая равна -6 ч.

Смотрите также архив погоды в соседних городах и на ближайших метеорологических станциях:

Погода в Манагуа (Никарагуа) (87 км)
Погода в Ривасе (Никарагуа) (91 км)
Погода в Хинотеге (Никарагуа) (128 км)
Погода в Либерии (Коста-Рика) (165 км)
Погода в Блуфилдсе (Никарагуа) (174 км)
Погода в Чинандеге (Никарагуа) (200 км)
Погода в Чолутеке (Гондурас) (237 км)
Погода в Сан-Хосе (Коста-Рика) (268 км)
Погода в Сан-Хосе аэропорту (Коста-Рика) (273 км)
Погода в Амапале (Гондурас) (280 км)

Пояснения к столбцам:

Ветер - указаны скорость ветра в м/с - средняя за 10 мин, порывы в срок и между сроками (в фигурных скобках) и направление, откуда дует ветер: С - северный, СВ - северо-восточный, В - восточный, ЮВ - юго-восточный, Ю - южный, ЮЗ - юго-западный, З - западный, СЗ - северо-западный.
Видимость - горизонтальная дальность видимости в метрах или километрах. При видимости от 1 до 10 км при отсутствии осадков обычно наблюдается дымка, при ухудшении видимости до 1 км и менее - туман. В сухую погоду видимость может ухудшаться дымом, пылью или мглою.
Явления - указаны атмосферные явления, наблюдавшиеся в срок или в последний час перед сроком; фигурными скобками обозначены явления, наблюдавшиеся между сроками (за 1-3 часа до срока); квадратными скобками обозначены град или гололедные отложения с указанием их диаметра в мм.
Облачность - указаны через наклонную черту общая и нижняя облачность в баллах и высота нижней границы облаков в метрах; квадратными скобками обозначены формы облаков: Ci - перистые, Cs - перисто-слоистые, Cc - перисто-кучевые, Ac - высококучевые, As - высокослоистые, Sc - слоисто-кучевые, Ns - слоисто-дождевые, Cu - кучевые, Cb - кучево-дождевые. Подробнее классификацию облаков см. в Атласе облаков (PDF).
T - Температура воздуха - температура, измеренная на высоте 2 м над землей.
Td - Температура точки росы - температура, при понижении до которой содержащийся в воздухе водяной пар достигнет насыщения.
f - Относительная влажность воздуха - влажноcть воздуха, измеренная на высоте 2 м над землей.
Te - Эффективная температура - температура, которую ощущает одетый по сезону человек в тени. Характеристика душности погоды. При расчете учитывается влияние влажности воздуха и скорости ветра на теплоощущения человека.
Tes - Эффективная температура на солнце - температура, которую ощущает человек, с поправкой на солнечный нагрев. Характеристика знойности погоды. Зависит от высоты солнца над горизонтом, облачности и скорости ветра. Ночью, в пасмурную погоду, а также при ветре 12 м/с и более поправка равна нулю.
P - Атмосферное давление - приведенное к уровню моря атмосферное давление.
Po - Атмосферное давление - измеренное на уровне метеостанции атмосферное давление.
Tmin - Минимальная температура - минимум температуры воздуха на высоте 2 м над землей.
Tmax - Максимальная температура - максимум температуры воздуха на высоте 2 м над землей.
R - Количество осадков - Количество выпавших осадков за период времени, мм. При наведении курсора мыши на число - период времени, за который выпало указанное количество осадков.
R24 - Количество осадков - Количество выпавших осадков за 24 часа, мм.
S - Снежный покров - Высота снежного покрова, см. При наведении курсора мыши на число - состояние снежного покрова и степень покрытия местности в баллах.